Location: DARK SKY Beskydy - Park tmavé oblohy, www.darkskybeskydy.cz
(49.4926°N, 18.5016°E)
Time: 04:01:59
(UTC+01:00)

N. Korean satellite - Pass Details

Date: 08 December 2022
Orbit: 407 x 441 km, 97.3° (Epoch: 05 February)

Event Time Altitude Azimuth Distance (km) Brightness Sun altitude
Rises 06:27:07 0° 356° (N) 2,513 9.9 -9.5°
Reaches altitude 10° 06:29:55 10° 332° (NNW) 1,623 8.7 -9.1°
Maximum altitude 06:31:50 14° 298° (WNW) 1,370 8.2 -8.8°
Drops below altitude 10° 06:33:44 10° 265° (W) 1,601 8.7 -8.6°
Sets 06:36:28 0° 239° (WSW) 2,456 9.8 -8.2°
